Date String (YYYY-MM-DD hh:mm:ss) UTC,Instrument flags,Ambient pressure (hPa),Sample flow (lpm),Bypass flow (lpm),Sample temperature (°C),Ambient temperature (°C),ASC tube jacket temperature (°C),LED temperature (°C),Box temperature (°C),Sample RH (%),Span deviation,Mass concentration (μg/m³),Mass concentration (μg/m³),Mass concentration (μg/m³)
DateTimeUTC,F1_M11,P_M11,Q1_M11,Q2_M11,T1_M11,T2_M11,T3_M11,T4_M11,T5_M11,U1_M11,ZSPAN_M11,X0_M11,X2_M11,X1_M11
2021-10-14 05:00:00,,0821.4,5.00,0.00,24.2,23.5,00.0,33.3,26.0,11.9,0000.0,0003.20,0002.38,0002.05
2021-10-14 05:01:00,,0821.3,4.99,0.00,24.2,23.5,00.0,33.3,26.0,11.9,0000.0,0003.20,0002.40,0002.06
2021-10-14 05:02:00,,0821.4,4.99,0.00,24.2,23.5,00.0,33.3,25.9,12.0,0000.0,0003.25,0002.42,0002.06
2021-10-14 05:03:00,,0821.4,5.02,0.00,24.2,23.5,00.0,33.3,25.9,11.9,0000.0,0003.23,0002.44,0002.07
2021-10-14 05:04:00,,0821.4,5.00,0.00,24.2,23.4,00.0,33.3,25.9,11.8,0000.0,0003.56,0002.49,0002.09
2021-10-14 05:05:00,,0821.4,4.99,0.00,24.1,23.4,00.0,33.3,25.9,11.9,0000.0,0003.88,0002.50,0002.10
2021-10-14 05:06:00,,0821.4,5.00,0.00,24.1,23.4,00.0,33.3,25.9,12.0,0000.0,0004.22,0002.54,0002.12
2021-10-14 05:07:00,,0821.4,5.00,0.00,24.1,23.4,00.0,33.3,25.9,12.0,0000.0,0004.32,0002.55,0002.13
2021-10-14 05:08:00,,0821.4,5.00,0.00,24.1,23.5,00.0,33.3,25.9,11.9,0000.0,0004.31,0002.55,0002.12
2021-10-14 05:09:00,,0821.4,5.01,0.00,24.1,23.4,00.0,33.3,25.9,11.9,0000.0,0004.25,0002.53,0002.13
2021-10-14 05:10:00,,0821.4,5.00,0.00,24.1,23.4,00.0,33.3,25.9,11.9,0000.0,0004.28,0002.56,0002.15
2021-10-14 05:11:00,,0821.4,5.01,0.00,24.1,23.4,00.0,33.3,25.9,12.0,0000.0,0004.32,0002.57,0002.15
2021-10-14 05:12:00,,0821.4,5.00,0.00,24.1,23.3,00.0,33.3,25.9,12.0,0000.0,0004.37,0002.57,0002.14
2021-10-14 05:13:00,,0821.4,4.99,0.00,24.1,23.3,00.0,33.3,25.9,12.0,0000.0,0004.31,0002.55,0002.14
2021-10-14 05:14:00,,0821.4,5.01,0.00,24.1,23.3,00.0,33.3,25.9,12.0,0000.0,0004.28,0002.53,0002.15
2021-10-14 05:15:00,,0821.4,5.00,0.00,24.1,23.3,00.0,33.2,25.8,12.1,0000.0,0004.06,0002.52,0002.15
2021-10-14 05:16:00,,0821.4,4.99,0.00,24.1,23.4,00.0,33.2,25.9,12.2,0000.0,0003.67,0002.50,0002.15
2021-10-14 05:17:00,,0821.4,5.01,0.00,24.1,23.4,00.0,33.2,25.9,12.3,0000.0,0003.41,0002.49,0002.15
2021-10-14 05:18:00,,0821.4,5.00,0.00,24.1,23.5,00.0,33.2,26.0,12.1,0000.0,0003.28,0002.48,0002.15
2021-10-14 05:19:00,,0821.4,4.99,0.00,24.1,23.5,00.0,33.2,26.0,12.0,0000.0,0003.28,0002.48,0002.16
2021-10-14 05:20:00,,0821.4,5.00,0.00,24.1,23.5,00.0,33.2,25.9,12.1,0000.0,0004.25,0002.52,0002.16
2021-10-14 05:21:00,,0821.4,5.01,0.00,24.1,23.5,00.0,33.2,26.0,12.1,0000.0,0004.69,0002.49,0002.14
2021-10-14 05:22:00,,0821.3,4.99,0.00,24.1,23.5,00.0,33.2,25.9,12.1,0000.0,0004.65,0002.48,0002.14
2021-10-14 05:23:00,,0821.4,5.00,0.00,24.1,23.5,00.0,33.2,25.9,12.1,0000.0,0005.36,0002.47,0002.14
2021-10-14 05:24:00,,0821.4,5.00,0.00,24.1,23.4,00.0,33.2,25.9,12.2,0000.0,0006.50,0002.51,0002.15
2021-10-14 05:25:00,,0821.3,5.00,0.00,24.1,23.4,00.0,33.2,25.9,12.4,0000.0,0006.51,0002.52,0002.15
2021-10-14 05:26:00,,0821.3,4.99,0.00,24.1,23.4,00.0,33.2,25.9,12.9,0000.0,0006.60,0002.54,0002.15
2021-10-14 05:27:00,,0821.3,5.00,0.00,24.1,23.4,00.0,33.2,25.9,13.4,0000.0,0006.65,0002.52,0002.14
2021-10-14 05:28:00,,0821.3,5.01,0.00,24.1,23.4,00.0,33.2,25.9,13.7,0000.0,0007.75,0002.54,0002.14
2021-10-14 05:29:00,,0821.3,4.99,0.00,24.1,23.4,00.0,33.2,25.9,13.9,0000.0,0007.71,0002.51,0002.13
2021-10-14 05:30:00,,0821.3,5.01,0.00,24.1,23.4,00.0,33.2,25.9,13.7,0000.0,0007.68,0002.48,0002.10
2021-10-14 05:31:00,,0821.2,5.02,0.00,24.1,23.4,00.0,33.2,25.9,13.7,0000.0,0007.22,0002.45,0002.10
2021-10-14 05:32:00,,0821.2,4.99,0.00,24.1,23.4,00.0,33.2,25.9,14.0,0000.0,0006.61,0002.48,0002.11
2021-10-14 05:33:00,,0821.2,5.02,0.00,24.1,23.4,00.0,33.2,25.9,14.3,0000.0,0007.10,0002.56,0002.12
2021-10-14 05:34:00,,0821.2,4.99,0.00,24.1,23.4,00.0,33.2,25.9,14.6,0000.0,0007.21,0002.61,0002.13
2021-10-14 05:35:00,,0821.3,5.00,0.00,24.1,23.5,00.0,33.2,26.0,14.8,0000.0,0006.40,0002.65,0002.12
2021-10-14 05:36:00,,0821.3,5.00,0.00,24.1,23.5,00.0,33.2,26.0,15.0,0000.0,0007.15,0002.70,0002.12
2021-10-14 05:37:00,,0821.4,4.99,0.00,24.1,23.5,00.0,33.2,26.0,15.0,0000.0,0007.67,0002.76,0002.13
2021-10-14 05:38:00,,0821.4,5.00,0.00,24.1,23.5,00.0,33.2,26.0,15.1,0000.0,0007.81,0002.85,0002.13
2021-10-14 05:39:00,,0821.3,5.00,0.00,24.1,23.5,00.0,33.2,26.0,15.2,0000.0,0007.10,0002.91,0002.13
2021-10-14 05:40:00,,0821.4,5.00,0.00,24.1,23.5,00.0,33.2,26.0,15.1,0000.0,0007.20,0002.96,0002.13
2021-10-14 05:41:00,,0821.4,5.00,0.00,24.1,23.5,00.0,33.2,26.0,15.1,0000.0,0008.07,0003.01,0002.15
2021-10-14 05:42:00,,0821.4,5.01,0.00,24.1,23.5,00.0,33.2,25.9,15.2,0000.0,0008.19,0003.03,0002.14
2021-10-14 05:43:00,,0821.3,4.99,0.00,24.1,23.4,00.0,33.2,25.9,15.3,0000.0,0009.03,0003.07,0002.13
2021-10-14 05:44:00,,0821.4,4.99,0.00,24.1,23.4,00.0,33.2,25.9,15.4,0000.0,0009.32,0003.08,0002.13
2021-10-14 05:45:00,,0821.4,5.01,0.00,24.1,23.4,00.0,33.2,25.9,15.4,0000.0,0009.51,0003.12,0002.13
2021-10-14 05:46:00,,0821.3,4.99,0.00,24.0,23.3,00.0,33.2,25.8,15.5,0000.0,0010.35,0003.13,0002.13
2021-10-14 05:47:00,,0821.3,5.01,0.00,24.0,23.3,00.0,33.2,25.7,15.6,0000.0,0010.37,0003.11,0002.13
2021-10-14 05:48:00,,0821.3,5.00,0.00,24.0,23.2,00.0,33.2,25.7,15.6,0000.0,0009.97,0003.06,0002.12
2021-10-14 05:49:00,,0821.4,5.00,0.00,24.0,23.2,00.0,33.2,25.7,15.7,0000.0,0009.84,0003.05,0002.12
2021-10-14 05:50:00,,0821.3,4.99,0.00,24.0,23.3,00.0,33.2,25.7,15.7,0000.0,0009.92,0003.08,0002.12
2021-10-14 05:51:00,,0821.4,5.00,0.00,24.0,23.3,00.0,33.2,25.7,15.7,0000.0,0010.07,0003.06,0002.12
2021-10-14 05:52:00,,0821.4,5.01,0.00,24.0,23.3,00.0,33.1,25.7,15.7,0000.0,0010.43,0003.08,0002.10
2021-10-14 05:53:00,,0821.4,5.00,0.00,23.9,23.2,00.0,33.1,25.7,15.7,0000.0,0010.55,0003.15,0002.11
2021-10-14 05:54:00,,0821.4,5.00,0.00,23.9,23.2,00.0,33.1,25.7,15.7,0000.0,0009.80,0003.17,0002.10
2021-10-14 05:55:00,,0821.4,4.99,0.00,23.9,23.2,00.0,33.1,25.7,15.7,0000.0,0009.62,0003.20,0002.10
2021-10-14 05:56:00,,0821.4,5.01,0.00,23.9,23.2,00.0,33.1,25.6,15.8,0000.0,0008.99,0003.17,0002.10
2021-10-14 05:57:00,,0821.4,5.00,0.00,23.9,23.2,00.0,33.1,25.6,15.8,0000.0,0008.33,0003.19,0002.09
2021-10-14 05:58:00,,0821.4,4.99,0.00,23.9,23.2,00.0,33.1,25.6,15.8,0000.0,0008.00,0003.22,0002.08
2021-10-14 05:59:00,,0821.4,5.01,0.00,23.9,23.2,00.0,33.1,25.6,15.9,0000.0,0008.25,0003.23,0002.06
